Regional Weather Roundup
Issued by NWS Little Rock, AR

Home | Current Version | Previous Version | Text Only | Print | Product List | Glossary Off
Versions: 1 2 3 4 5 6 7 8 9 10 11 12 13 14 15 16 17 18 19 20 21 22 23 24 25 26 27 28 29 30 31 32 33 34 35 36 37 38 39 40 41 42 43 44 45 46 47 48 49 50

240
ASUS44 KLZK 221405
RWRLZK

WEATHER ROUNDUP FOR ARKANSAS
NATIONAL WEATHER SERVICE LITTLE ROCK AR
800 AM CST WED FEB 22 2017

NOTE: "FAIR" INDICATES FEW OR NO CLOUDS BELOW 12,000 FEET WITH NO
SIGNIFICANT WEATHER AND/OR OBSTRUCTIONS TO VISIBILITY.

ARZ001-003-010-029-221500-
NORTHWEST ARKANSAS

CITY           SKY/WX    TMP DP  RH WIND       PRES   REMARKS
FAYETTEVILLE   FOG       52  52 100 S5        29.90R VSB 1/4
FORT SMITH     FOG       50  49  96 CALM      29.89R VSB<1/4
HARRISON       CLOUDY    55  54  96 S5        29.90S
BENTONVILLE    CLOUDY    55  52  88 S7        29.91R
ROGERS         CLOUDY    55  54  94 S6        29.90R FOG
SILOAM SPGS    CLOUDY    54  52  94 CALM      29.90R VSB<1/4
HIGHFILL       PTSUNNY   55  55 100 CALM      29.89R FOG
SPRINGDALE     SUNNY     55  55 100 SE5       29.91R
$$

ARZ004-005-016-221500-
NORTH CENTRAL ARKANSAS

CITY           SKY/WX    TMP DP  RH WIND       PRES   REMARKS
BATESVILLE     CLOUDY    55  55 100 CALM      29.92R VSB 3/4
FLIPPIN        CLOUDY    55  52  88 CALM      29.87F
MTN HOME       FOG       54  54 100 CALM      29.88F VSB 1/4
$$

ARZ040-041-221500-
WEST CENTRAL ARKANSAS

CITY           SKY/WX    TMP DP  RH WIND       PRES   REMARKS
MENA           PTSUNNY   54  52  94 CALM      29.90S VSB 3/4
MOUNT IDA      FOG       55  55 100 CALM      29.86F VSB 3/4
$$

ARZ009-017-025-026-028-221500-
NORTHEAST ARKANSAS

CITY           SKY/WX    TMP DP  RH WIND       PRES   REMARKS
CORNING        FOG       57  57 100 CALM      29.90F VSB<1/4
JONESBORO      CLOUDY    60  57  89 NE3       29.90R
NEWPORT        PTSUNNY   58  58 100 MISG        N/A  FOG
WALNUT RIDGE   CLOUDY    57  55  94 CALM      29.90S
BLYTHEVILLE    FOG       54  54 100 N3        29.91R VSB 1/4
$$

ARZ022-023-033-042-044-221500-
CENTRAL ARKANSAS

CITY           SKY/WX    TMP DP  RH WIND       PRES   REMARKS
LITTLE ROCK    CLOUDY    56  56 100 N6        29.90S FOG
N LITTLE ROCK    N/A     56  55  98 CALM      29.91R
JACKSONVILLE   FOG       56  56 100 N3        29.89S VSB 3/4
SEARCY         CLOUDY    58  58 100 N5        29.93R FOG
HOT SPRINGS    CLOUDY    59  56  89 CALM      29.90S
RUSSELLVILLE   FOG       50  50 100 CALM      29.89S VSB<1/4
CLINTON        CLOUDY    55  54  94 CALM      29.91R
$$

ARZ036-221500-
EAST ARKANSAS

CITY           SKY/WX    TMP DP  RH WIND       PRES   REMARKS
WEST MEMPHIS   FAIR      58  58 100 CALM      29.87F
$$

ARZ050-053-066-070-073-221500-
SOUTHWEST ARKANSAS

CITY           SKY/WX    TMP DP  RH WIND       PRES   REMARKS
ARKADELPHIA      N/A    N/A N/A N/A MISG        N/A
CAMDEN         CLOUDY    59  55  88 CALM      29.91R
TEXARKANA      CLOUDY    55  55 100 CALM      29.90S
EL DORADO      CLOUDY    59  57  93 N5        29.90R
DE QUEEN       FAIR      49  49 100 CALM      29.89R
$$

ARZ056-057-069-221500-
SOUTHEAST ARKANSAS

CITY           SKY/WX    TMP DP  RH WIND       PRES   REMARKS
PINE BLUFF     FOG       56  56 100 N6        29.91R VSB 1/4
STUTTGART      CLOUDY    57  52  82 NW6       29.91S VSB<1/4
MONTICELLO     CLOUDY    57  56  96 NE7       29.89S FOG

$$






USA.gov is the U.S. government's official web portal to all federal, state and local government web resources and services.